Starlink 30716

operational
NORAD ID: 57936 Int'l Des: 2023-148 Owner: SPXS Country: US Constellation: starlink
LEOCIRCULAR

Starlink 30716について

説明を読み込み中...

リアルタイム位置

3D地球を読み込み中...

次回通過

高度履歴

Altitude vs Time

uPlot chart will show altitude changes over time

軌道要素

1 57936U 23148B 25304.59174291 -.00000967 00000-0 -20550-4 0 9990
2 57936 53.1625 264.0798 0001431 89.5546 270.5619 15.30184763118655
Epoch: Oct 31, 2025 • Age: 10 hours

現在のステータス

高度 475.1 km
速度 7.63 km/s
衛星直下点 14.56°N, 25.76°E
打ち上げ日 Sep 25, 2023
運用期間 2 years
タイプ internet

技術仕様

分類 Payload
質量 730.00 kg
乾燥質量 700.00 kg
総質量 730.00 kg
長さ 0.30 m
直径 4.10 m
スパン 29.00 m
形状 Box + pan
製造者 SPXS
バスタイプ Starlink V2M
フェーズステータス In Orbit
所有者/国 SPXS/US

大規模コンステレーション

Loading constellations...